Weather History for Asheville, NC

Change the Weather History Date:

Sunday, January 25, 2009

  Actual Average Record
Temperature  
Mean Temperature 39 °F 37 °F  
Max Temperature 46 °F 48 °F 74 °F (1943)
Min Temperature 32 °F 27 °F -1 °F (1905)
Degree Days  
Heating Degree Days 26 28  
Month to date heating degree days 712 700  
Since 1 July heating degree days 2437 2361  
Cooling Degree Days 0 0  
Month to date cooling degree days 0 0  
Year to date cooling degree days 0 0  
Moisture  
Dew Point 22 °F    
Average Humidity 53    
Maximum Humidity 69    
Minimum Humidity 36    
Precipitation  
Precipitation 0.00 in 0.12 in 2.80 in (1978)
Month to date precipitation 2.24 2.95  
Year to date precipitation 2.24 2.95  
Snow  
Snow 0.00 in 0.20 in 4.00 in (2004)
Month to date snowfall 1.0 3.4  
Since 1 July snowfall 1.0 4.4  
Snow Depth -    
Sea Level Pressure  
Sea Level Pressure 30.19 in    
Wind  
Wind Speed 6 mph (SSE)    
Max Wind Speed 13 mph    
Max Gust Speed 16 mph    
Visibility 10 miles    
Events      
T = Trace of Precipitation, MM = Missing Value Source: NWS Daily Summary

Daily Weather History Graph

Daily Weather History Graph

Search for Another Location

Airport:

Trip Planner

Search our weather history database for the weather conditions in past years. The results will help you decide how hot, cold, wet, or windy it might be!

Date:

Astronomy

Jan. 25, 2009 Rise Set
Actual Time 7:34 AM EST 5:51 PM EST
Civil Twilight 7:07 AM EST 6:18 PM EST
Nautical Twilight 6:36 AM EST 6:49 PM EST
Astronomical Twilight 6:06 AM EST 7:19 PM EST
Moon 7:13 AM EST (1/25) 5:22 PM EST (1/25)
Length of Visible Light 11h 11m
Length of Day
10h 16m
Waning Crescent, 0% of the Moon is Illuminated
Jan 25
Waning Crescent
Jan 26
New
Feb 2
First Quarter
Feb 9
Full
Feb 16
Last Quarter

Hourly Weather History & Observations

Time (EST) Temp. Windchill Dew Point Humidity Pressure Visibility Wind Dir Wind Speed Gust Speed Precip Events Conditions
12:54 AM 33.1 °F 25.5 °F 23.0 °F 66% 30.18 in 10.0 mi NNW 9.2 mph - N/A   Overcast
1:54 AM 33.1 °F 24.9 °F 23.0 °F 66% 30.18 in 10.0 mi NNW 10.4 mph - N/A   Overcast
2:54 AM 33.1 °F 24.9 °F 23.0 °F 66% 30.19 in 10.0 mi NNW 10.4 mph - N/A   Overcast
3:54 AM 33.1 °F 27.7 °F 23.0 °F 66% 30.19 in 10.0 mi NNW 5.8 mph - N/A   Overcast
4:54 AM 32.0 °F - 23.0 °F 69% 30.17 in 10.0 mi Calm Calm - N/A   Overcast
5:43 AM 33.8 °F - 24.8 °F 70% 30.16 in 10.0 mi Calm Calm - N/A   Overcast
5:54 AM 34.0 °F - 24.1 °F 67% 30.18 in 10.0 mi Calm Calm - N/A   Overcast
6:54 AM 33.8 °F 30.8 °F 24.8 °F 70% 30.17 in 10.0 mi South 3.5 mph - N/A   Overcast
7:54 AM 34.0 °F 27.2 °F 23.0 °F 64% 30.21 in 10.0 mi SSE 8.1 mph - N/A   Overcast
8:22 AM 33.8 °F 27.0 °F 21.2 °F 60% 30.20 in 10.0 mi SSE 8.1 mph - N/A   Overcast
8:54 AM 34.0 °F 29.8 °F 21.9 °F 61% 30.24 in 10.0 mi South 4.6 mph - N/A   Overcast
9:54 AM 34.0 °F 27.2 °F 21.9 °F 61% 30.25 in 10.0 mi SSE 8.1 mph - N/A   Overcast
10:54 AM 36.0 °F 29.0 °F 21.0 °F 55% 30.24 in 10.0 mi South 9.2 mph - N/A   Overcast
11:54 AM 37.9 °F 32.1 °F 21.0 °F 51% 30.21 in 10.0 mi SE 8.1 mph - N/A   Scattered Clouds
12:54 PM 42.1 °F 37.7 °F 19.9 °F 41% 30.17 in 10.0 mi Variable 6.9 mph - N/A   Clear
1:54 PM 44.1 °F 40.8 °F 19.0 °F 37% 30.14 in 10.0 mi SSE 5.8 mph - N/A   Clear
2:54 PM 45.0 °F 41.2 °F 19.9 °F 37% 30.13 in 10.0 mi ESE 6.9 mph - N/A   Clear
3:54 PM 45.0 °F 40.1 °F 19.9 °F 37% 30.15 in 10.0 mi ESE 9.2 mph - N/A   Mostly Cloudy
4:54 PM 42.1 °F 37.7 °F 21.0 °F 43% 30.17 in 10.0 mi SE 6.9 mph - N/A   Overcast
5:54 PM 41.0 °F 36.4 °F 21.0 °F 45% 30.17 in 10.0 mi SSE 6.9 mph - N/A   Overcast
6:54 PM 37.9 °F 35.5 °F 21.0 °F 51% 30.19 in 10.0 mi SSE 3.5 mph - N/A   Mostly Cloudy
7:54 PM 37.9 °F 34.4 °F 23.0 °F 55% 30.21 in 10.0 mi South 4.6 mph - N/A   Overcast
8:54 PM 37.9 °F 34.4 °F 23.0 °F 55% 30.22 in 10.0 mi SSE 4.6 mph - N/A   Overcast
9:54 PM 37.9 °F 34.4 °F 23.0 °F 55% 30.22 in 10.0 mi SE 4.6 mph - N/A   Overcast
10:54 PM 37.9 °F 35.5 °F 23.0 °F 55% 30.22 in 10.0 mi SE 3.5 mph - N/A   Overcast
11:54 PM 37.0 °F 32.4 °F 24.1 °F 59% 30.21 in 10.0 mi SSE 5.8 mph - N/A   Overcast